Weather History for KHJH - November, 2012

Change the Weather History Date:

Thursday, November 1, 2012

  Actual Average Record
Temperature  
Mean Temperature 54 °F -  
Max Temperature 66 °F 58 °F 84 °F (1950)
Min Temperature 41 °F 35 °F 12 °F (1993)
Degree Days  
Heating Degree Days 12    
Growing Degree Days 4 (Base 50)    
Moisture  
Dew Point 41 °F    
Average Humidity 68    
Maximum Humidity 88    
Minimum Humidity 41    
Precipitation  
Precipitation 0.00 in - - ()
Sea Level Pressure  
Sea Level Pressure 29.98 in    
Wind  
Wind Speed 6 mph (NNW)    
Max Wind Speed 12 mph    
Max Gust Speed 18 mph    
Visibility 9 miles    
Events      
Averages and records for this station are not official NWS values.
T = Trace of Precipitation, MM = Missing Value Source: NWS Daily Summary

Daily Weather History Graph

Daily Weather History Graph

Search for Another Location

Airport or City:

Trip Planner

Search our weather history database for the weather conditions in past years. The results will help you decide how hot, cold, wet, or windy it might be!

Date:

Astronomy

Nov. 01, 2012 Rise Set
Actual Time 8:00 AM CDT 6:26 PM CDT
Civil Twilight 7:32 AM CDT 6:55 PM CDT
Nautical Twilight 6:59 AM CDT 7:27 PM CDT
Astronomical Twilight 6:28 AM CDT 7:58 PM CDT
Moon 8:25 PM CDT (11/1) 10:34 AM CDT (11/1)
Length of Visible Light 11h 23m
Length of Day
10h 26m
Waning Gibbous, 93% of the Moon is Illuminated
Nov 1
Waning Gibbous
Nov 6
Last Quarter
Nov 13
New
Nov 20
First Quarter
Nov 28
Full

Hourly Weather History & Observations

Time (CDT) Temp. Windchill Dew Point Humidity Pressure Visibility Wind Dir Wind Speed Gust Speed Precip Events Conditions
12:15 AM 42.8 °F - 39.2 °F 87% 30.00 in 10.0 mi Calm Calm - N/A   Clear
12:35 AM 45.0 °F 41.8 °F 39.6 °F 81% 30.00 in 10.0 mi WSW 5.8 mph - N/A   Clear
1:15 AM 48.6 °F - 40.5 °F 74% 30.00 in 10.0 mi WSW 4.6 mph - N/A   Scattered Clouds
1:35 AM 49.3 °F - 40.5 °F 72% 30.00 in 10.0 mi WSW 6.9 mph - N/A   Scattered Clouds
1:55 AM 49.1 °F - 40.3 °F 72% 29.99 in 10.0 mi WSW 6.9 mph - N/A   Clear
2:15 AM 48.7 °F - 40.5 °F 73% 29.99 in 10.0 mi WSW 6.9 mph - N/A   Clear
2:35 AM 47.7 °F - 40.1 °F 75% 29.99 in 10.0 mi WSW 8.1 mph - N/A   Clear
2:55 AM 49.1 °F - 40.3 °F 72% 29.99 in 10.0 mi WSW 5.8 mph - N/A   Clear
3:15 AM 48.9 °F - 40.1 °F 72% 29.99 in 10.0 mi WSW 8.1 mph - N/A   Clear
3:35 AM 47.3 °F - 40.1 °F 76% 29.98 in 10.0 mi West 4.6 mph - N/A   Clear
3:55 AM 46.6 °F - 39.6 °F 77% 29.98 in 10.0 mi West 4.6 mph - N/A   Clear
4:15 AM 48.0 °F - 40.1 °F 74% 29.97 in 10.0 mi West 6.9 mph - N/A   Clear
4:35 AM 45.3 °F 44.0 °F 38.8 °F 78% 29.97 in 10.0 mi WNW 3.5 mph - N/A   Clear
4:55 AM 45.5 °F 43.2 °F 39.4 °F 79% 29.97 in 10.0 mi West 4.6 mph - N/A   Clear
5:15 AM 43.7 °F 40.3 °F 38.8 °F 83% 29.97 in 10.0 mi West 5.8 mph - N/A   Clear
5:35 AM 44.2 °F 41.8 °F 39.2 °F 82% 29.97 in 10.0 mi West 4.6 mph - N/A   Clear
5:55 AM 45.7 °F 42.7 °F 39.9 °F 80% 29.97 in 10.0 mi WSW 5.8 mph - N/A   Clear
6:15 AM 45.5 °F 42.5 °F 39.6 °F 80% 29.97 in 10.0 mi West 5.8 mph - N/A   Clear
6:35 AM 45.7 °F 40.6 °F 39.4 °F 79% 29.98 in 10.0 mi West 10.4 mph - N/A   Clear
6:55 AM 45.7 °F 41.0 °F 39.2 °F 78% 29.98 in 10.0 mi West 9.2 mph - N/A   Clear
7:35 AM 44.8 °F 40.4 °F 39.0 °F 80% 29.98 in 10.0 mi WNW 8.1 mph - N/A   Clear
7:55 AM 45.1 °F 40.8 °F 39.2 °F 80% 29.98 in 10.0 mi West 8.1 mph - N/A   Clear
8:35 AM 46.2 °F 43.3 °F 39.4 °F 77% 30.00 in 10.0 mi West 5.8 mph - N/A   Clear
8:55 AM 47.5 °F - 40.5 °F 77% 30.01 in 10.0 mi WNW 6.9 mph - N/A   Clear
9:15 AM 49.5 °F - 41.2 °F 73% 30.01 in 10.0 mi WNW 9.2 mph - N/A   Clear
9:35 AM 50.0 °F - 41.4 °F 72% 30.02 in 10.0 mi NW 6.9 mph - N/A   Clear
9:55 AM 51.1 °F - 42.1 °F 71% 30.02 in 10.0 mi NW 9.2 mph - N/A   Clear
10:15 AM 51.8 °F - 42.3 °F 70% 30.03 in 10.0 mi NW 9.2 mph - N/A   Clear
10:35 AM 53.6 °F - 42.8 °F 67% 30.03 in 10.0 mi NW 9.2 mph - N/A   Clear
11:15 AM 55.4 °F - 43.2 °F 63% 30.02 in 10.0 mi NNW 9.2 mph - N/A   Clear
11:35 AM 56.7 °F - 43.3 °F 61% 30.03 in 10.0 mi NNW 8.1 mph - N/A   Clear
11:55 AM 57.7 °F - 43.3 °F 59% 30.03 in 10.0 mi North 11.5 mph 17.3 mph N/A   Clear
12:15 PM 58.3 °F - 43.3 °F 58% 30.03 in 10.0 mi NNW 8.1 mph 18.4 mph N/A   Clear
12:35 PM 59.5 °F - 43.2 °F 55% 30.02 in 10.0 mi North 9.2 mph - N/A   Clear
12:55 PM 60.4 °F - 43.3 °F 53% 30.01 in 10.0 mi NNE 8.1 mph - N/A   Clear
1:15 PM 61.7 °F - 43.0 °F 50% 30.00 in 10.0 mi NNE 10.4 mph - N/A   Clear
1:35 PM 62.8 °F - 43.0 °F 48% 29.99 in 10.0 mi NNE 11.5 mph - N/A   Clear
1:55 PM 62.6 °F - 42.1 °F 47% 29.98 in 10.0 mi North 8.1 mph - N/A   Clear
2:15 PM 63.9 °F - 42.8 °F 46% 29.97 in 10.0 mi NNE 6.9 mph - N/A   Clear
2:35 PM 63.7 °F - 42.8 °F 47% 29.97 in 10.0 mi North 5.8 mph - N/A   Clear
2:55 PM 64.9 °F - 42.3 °F 44% 29.96 in 10.0 mi NNE 5.8 mph - N/A   Clear
3:15 PM 66.2 °F - 42.8 °F 43% 29.96 in 10.0 mi NNE 8.1 mph - N/A   Clear
3:35 PM 66.0 °F - 42.4 °F 42% 29.95 in 10.0 mi NE 8.1 mph - N/A   Clear
3:55 PM 66.7 °F - 42.1 °F 41% 29.95 in 10.0 mi NE 10.4 mph - N/A   Clear
4:15 PM 65.8 °F - 42.1 °F 42% 29.95 in 10.0 mi NE 6.9 mph - N/A   Clear
4:35 PM 64.8 °F - 42.3 °F 44% 29.95 in 5.0 mi ENE 8.1 mph - N/A   Haze
4:55 PM 64.0 °F - 42.3 °F 45% 29.94 in 2.5 mi ENE 6.9 mph - N/A   Haze
5:15 PM 62.6 °F - 42.4 °F 48% 29.94 in 0.5 mi ENE 4.6 mph - N/A   Haze
5:35 PM 61.5 °F - 42.8 °F 50% 29.94 in 1.0 mi NE 3.5 mph - N/A   Haze
5:55 PM 60.6 °F - 42.8 °F 52% 29.95 in 10.0 mi NNE 3.5 mph - N/A   Clear
6:15 PM 58.6 °F - 42.6 °F 55% 29.94 in 10.0 mi ENE 3.5 mph - N/A   Clear
6:35 PM 56.8 °F - 42.4 °F 59% 29.94 in 10.0 mi East 3.5 mph - N/A   Clear
6:55 PM 55.4 °F - 42.1 °F 61% 29.95 in 10.0 mi Calm Calm - N/A   Clear
7:15 PM 53.6 °F - 41.9 °F 65% 29.95 in 10.0 mi Calm Calm - N/A   Clear
7:35 PM 50.7 °F - 42.1 °F 72% 29.96 in 10.0 mi Calm Calm - N/A   Clear
7:55 PM 50.5 °F - 41.2 °F 70% 29.96 in 10.0 mi Calm Calm - N/A   Clear
8:15 PM 50.2 °F - 41.2 °F 71% 29.95 in 10.0 mi Calm Calm - N/A   Clear
8:35 PM 49.1 °F - 41.2 °F 74% 29.95 in 10.0 mi Calm Calm - N/A   Clear
8:55 PM 49.3 °F - 41.4 °F 74% 29.95 in 10.0 mi East 3.5 mph - N/A   Clear
9:15 PM 48.7 °F - 41.5 °F 76% 29.94 in 7.0 mi ESE 3.5 mph - N/A   Clear
9:35 PM 47.7 °F - 41.2 °F 78% 29.95 in 7.0 mi East 4.6 mph - N/A   Clear
9:55 PM 47.3 °F - 41.0 °F 79% 29.95 in 7.0 mi ESE 3.5 mph - N/A   Clear
10:15 PM 46.2 °F 45.0 °F 40.6 °F 81% 29.95 in 7.0 mi East 3.5 mph - N/A   Clear
10:35 PM 43.3 °F 41.7 °F 39.2 °F 85% 29.95 in 5.0 mi ENE 3.5 mph - N/A   Clear
10:55 PM 43.0 °F 40.3 °F 39.2 °F 86% 29.96 in 5.0 mi ENE 4.6 mph - N/A   Clear
11:15 PM 43.7 °F 41.1 °F 39.6 °F 85% 29.96 in 5.0 mi East 4.6 mph - N/A   Clear
11:35 PM 41.7 °F 38.8 °F 38.3 °F 88% 29.95 in 4.0 mi SE 4.6 mph - N/A   Clear
11:55 PM 43.5 °F 40.9 °F 40.1 °F 88% 29.94 in 4.0 mi East 4.6 mph - N/A   Clear